Change the Weather History Date:

Thursday, March 28, 2013

  Actual Average Record
Temperature  
Mean Temperature 45 °F 41 °F  
Max Temperature 64 °F 56 °F 74 °F (1986)
Min Temperature 26 °F 25 °F 7 °F (1970)
Degree Days  
Heating Degree Days 20 24  
Month to date heating degree days 742 783  
Since 1 July heating degree days 6088 5958  
Cooling Degree Days 0 0  
Month to date cooling degree days 0 0  
Year to date cooling degree days 0 0  
Moisture  
Dew Point 14 °F    
Average Humidity 35    
Maximum Humidity 57    
Minimum Humidity 13    
Precipitation  
Precipitation 0.00 in 0.04 in 0.37 in (1979)
Month to date precipitation 0.40 1.13  
Year to date precipitation 2.61 3.41  
Sea Level Pressure  
Sea Level Pressure 30.06 in    
Wind  
Wind Speed 6 mph (WNW)    
Max Wind Speed 21 mph    
Max Gust Speed 25 mph    
Visibility 10 miles    
Events      
T = Trace of Precipitation, MM = Missing Value Source: NWS Daily Summary

Daily Weather History Graph

Daily Weather History Graph

Search for Another Location

Airport or City:

Trip Planner

Search our weather history database for the weather conditions in past years. The results will help you decide how hot, cold, wet, or windy it might be!

Date:

Astronomy

Mar. 28, 2013 Rise Set
Actual Time 7:02 AM MDT 7:30 PM MDT
Civil Twilight 6:36 AM MDT 7:56 PM MDT
Nautical Twilight 6:05 AM MDT 8:27 PM MDT
Astronomical Twilight 5:34 AM MDT 8:58 PM MDT
Moon 9:22 PM MDT (3/28) 7:34 AM MDT (3/28)
Length of Visible Light 13h 20m
Length of Day
12h 28m
Full, 98% of the Moon is Illuminated
Mar 28
Full
Apr 2
Last Quarter
Apr 10
New
Apr 18
First Quarter
Apr 25
Full

Hourly Weather History & Observations

Time (MDT) Temp. Windchill Dew Point Humidity Pressure Visibility Wind Dir Wind Speed Gust Speed Precip Events Conditions
12:53 AM 37.9 °F 35.5 °F 15.1 °F 39% 30.02 in 10.0 mi NNE 3.5 mph - N/A   Clear
1:53 AM 35.1 °F 31.0 °F 15.1 °F 44% 30.03 in 10.0 mi North 4.6 mph - N/A   Clear
2:53 AM 32.0 °F 28.7 °F 14.0 °F 48% 30.05 in 10.0 mi East 3.5 mph - N/A   Clear
3:53 AM 35.1 °F - 14.0 °F 42% 30.01 in 10.0 mi Calm Calm - N/A   Scattered Clouds
4:53 AM 33.1 °F - 15.1 °F 48% 30.03 in 10.0 mi Calm Calm - N/A   Clear
5:53 AM 28.9 °F 25.2 °F 14.0 °F 54% 30.08 in 10.0 mi NNE 3.5 mph - N/A   Clear
6:53 AM 27.0 °F - 14.0 °F 58% 30.10 in 10.0 mi Calm Calm - N/A   Mostly Cloudy
7:53 AM 33.1 °F - 17.1 °F 52% 30.10 in 10.0 mi Calm Calm - N/A   Clear
8:53 AM 42.1 °F - 17.1 °F 37% 30.09 in 10.0 mi Calm Calm - N/A   Clear
9:53 AM 46.9 °F - 18.0 °F 32% 30.10 in 10.0 mi Calm Calm - N/A   Clear
10:53 AM 53.1 °F - 16.0 °F 23% 30.09 in 10.0 mi Calm Calm - N/A   Clear
11:53 AM 57.9 °F - 15.1 °F 19% 30.07 in 10.0 mi WSW 10.4 mph - N/A   Clear
12:53 PM 59.0 °F - 14.0 °F 17% 30.05 in 10.0 mi WSW 10.4 mph - N/A   Clear
1:53 PM 61.0 °F - 12.9 °F 15% 30.04 in 10.0 mi SSW 13.8 mph 20.7 mph N/A   Clear
2:53 PM 62.1 °F - 14.0 °F 15% 30.04 in 10.0 mi West 8.1 mph 19.6 mph N/A   Clear
3:53 PM 63.0 °F - 10.9 °F 13% 30.00 in 10.0 mi West 12.7 mph 18.4 mph N/A   Clear
4:53 PM 62.1 °F - 10.9 °F 13% 30.01 in 10.0 mi WSW 16.1 mph 20.7 mph N/A   Clear
5:53 PM 62.1 °F - 14.0 °F 15% 30.03 in 10.0 mi West 12.7 mph 20.7 mph N/A   Clear
6:53 PM 57.9 °F - 12.0 °F 16% 30.07 in 10.0 mi West 12.7 mph - N/A   Clear
7:53 PM 54.0 °F - 12.9 °F 20% 30.07 in 10.0 mi West 4.6 mph - N/A   Clear
8:53 PM 48.0 °F - 12.9 °F 24% 30.07 in 10.0 mi Calm Calm - N/A   Clear
9:53 PM 45.0 °F 41.2 °F 14.0 °F 29% 30.09 in 10.0 mi North 6.9 mph - N/A   Clear
10:53 PM 42.1 °F 40.2 °F 15.1 °F 34% 30.08 in 10.0 mi ENE 3.5 mph - N/A   Clear
11:53 PM 39.9 °F 36.7 °F 17.1 °F 40% 30.07 in 10.0 mi North 4.6 mph - N/A   Clear